Time,TemperatureF,DewpointF,PressureIn,WindDirection,WindDirectionDegrees,WindSpeedMPH,WindSpeedGustMPH,Humidity,HourlyPrecipIn,Conditions,Clouds,dailyrainin,SoftwareType,DateUTC
2013-01-31 00:01:00,7.0,0.0,-100.00,NW,305,10.0,17.0,69,0.00,,,-99.99,,2013-01-31 06:01:00,
2013-01-31 00:10:00,7.0,0.0,-100.00,NW,305,10.0,17.0,69,0.00,,,-99.99,,2013-01-31 06:10:00,
2013-01-31 08:02:00,-2.0,-10.0,-100.00,WNW,300,14.0,21.0,67,0.00,,,-99.99,,2013-01-31 14:02:00,
2013-01-31 08:11:00,-2.0,-10.0,-100.00,NW,315,15.0,21.0,67,0.00,,,-99.99,,2013-01-31 14:11:00,
2013-01-31 08:22:00,-2.0,-10.0,-100.00,WNW,300,15.0,23.0,67,0.00,,,-99.99,,2013-01-31 14:22:00,
2013-01-31 08:32:00,-2.0,-10.0,-100.00,NNW,330,13.0,19.0,67,0.00,,,-99.99,,2013-01-31 14:32:00,
2013-01-31 08:42:00,-2.0,-10.0,-100.00,NNW,330,13.0,19.0,67,0.00,,,-99.99,,2013-01-31 14:42:00,
2013-01-31 08:52:00,-2.0,-10.0,-100.00,WNW,300,15.0,26.0,66,0.00,,,-99.99,,2013-01-31 14:52:00,
2013-01-31 09:03:00,-2.0,-10.0,-100.00,WNW,300,15.0,26.0,66,0.00,,,-99.99,,2013-01-31 15:03:00,
2013-01-31 09:12:00,-1.0,-10.0,-100.00,NW,325,11.0,22.0,66,0.00,,,-99.99,,2013-01-31 15:12:00,
2013-01-31 09:22:00,-1.0,-10.0,-100.00,NW,320,11.0,25.0,66,0.00,,,-99.99,,2013-01-31 15:22:00,
2013-01-31 09:32:00,-1.0,-10.0,-100.00,NW,315,15.0,24.0,65,0.00,,,-99.99,,2013-01-31 15:32:00,
2013-01-31 09:42:00,-1.0,-10.0,-100.00,NW,315,15.0,24.0,65,0.00,,,-99.99,,2013-01-31 15:42:00,
2013-01-31 09:51:00,-1.0,-11.0,-100.00,NW,325,19.0,26.0,63,0.00,,,-99.99,,2013-01-31 15:51:00,
2013-01-31 10:03:00,-1.0,-11.0,-100.00,NW,325,19.0,26.0,63,0.00,,,-99.99,,2013-01-31 16:03:00,
2013-01-31 10:12:00,-1.0,-10.0,-100.00,NNW,330,17.0,24.0,63,0.00,,,-99.99,,2013-01-31 16:12:00,
2013-01-31 10:21:00,-1.0,-10.0,-100.00,NW,315,17.0,26.0,63,0.00,,,-99.99,,2013-01-31 16:21:00,
2013-01-31 10:33:00,0.0,-10.0,-100.00,NW,315,17.0,24.0,62,0.00,,,-99.99,,2013-01-31 16:33:00,
2013-01-31 10:42:00,0.0,-10.0,-100.00,NW,305,17.0,27.0,61,0.00,,,-99.99,,2013-01-31 16:42:00,
2013-01-31 10:51:00,0.0,-11.0,-100.00,NW,310,20.0,30.0,59,0.00,,,-99.99,,2013-01-31 16:51:00,
2013-01-31 11:02:00,0.0,-11.0,-100.00,NW,310,20.0,30.0,59,0.00,,,-99.99,,2013-01-31 17:02:00,
2013-01-31 11:12:00,1.0,-10.0,-100.00,NW,320,19.0,32.0,59,0.00,,,-99.99,,2013-01-31 17:12:00,
2013-01-31 11:23:00,0.0,-11.0,-100.00,NW,310,22.0,28.0,59,0.00,,,-99.99,,2013-01-31 17:23:00,
2013-01-31 11:32:00,0.0,-11.0,-100.00,NW,315,21.0,29.0,58,0.00,,,-99.99,,2013-01-31 17:32:00,
2013-01-31 11:43:00,0.0,-11.0,-100.00,NW,315,21.0,29.0,58,0.00,,,-99.99,,2013-01-31 17:43:00,
2013-01-31 11:53:00,0.0,-11.0,-100.00,NW,320,18.0,31.0,57,0.00,,,-99.99,,2013-01-31 17:53:00,
2013-01-31 12:02:00,0.0,-11.0,-100.00,NW,320,18.0,31.0,57,0.00,,,-99.99,,2013-01-31 18:02:00,
2013-01-31 12:12:00,1.0,-10.0,-100.00,NW,320,17.0,32.0,57,0.00,,,-99.99,,2013-01-31 18:12:00,
2013-01-31 12:22:00,1.0,-11.0,-100.00,WNW,295,21.0,31.0,56,0.00,,,-99.99,,2013-01-31 18:22:00,
2013-01-31 12:32:00,1.0,-12.0,-100.00,WNW,295,20.0,29.0,55,0.00,,,-99.99,,2013-01-31 18:32:00,
2013-01-31 12:43:00,1.0,-12.0,-100.00,WNW,295,20.0,29.0,55,0.00,,,-99.99,,2013-01-31 18:43:00,
2013-01-31 12:52:00,1.0,-11.0,-100.00,WNW,295,20.0,30.0,55,0.00,,,-99.99,,2013-01-31 18:52:00,
2013-01-31 13:02:00,1.0,-11.0,-100.00,WNW,295,20.0,30.0,55,0.00,,,-99.99,,2013-01-31 19:02:00,
2013-01-31 13:12:00,2.0,-11.0,-100.00,NW,315,19.0,29.0,55,0.00,,,-99.99,,2013-01-31 19:12:00,
2013-01-31 13:21:00,2.0,-11.0,-100.00,WNW,300,19.0,27.0,55,0.00,,,-99.99,,2013-01-31 19:21:00,
2013-01-31 13:32:00,2.0,-11.0,-100.00,NNW,330,17.0,28.0,54,0.00,,,-99.99,,2013-01-31 19:32:00,
2013-01-31 13:42:00,2.0,-11.0,-100.00,NNW,330,17.0,28.0,54,0.00,,,-99.99,,2013-01-31 19:42:00,
2013-01-31 13:51:00,2.0,-11.0,-100.00,NW,325,16.0,28.0,55,0.00,,,-99.99,,2013-01-31 19:51:00,
2013-01-31 14:02:00,2.0,-11.0,-100.00,NW,325,16.0,28.0,55,0.00,,,-99.99,,2013-01-31 20:02:00,
2013-01-31 14:11:00,2.0,-10.0,-100.00,NW,325,16.0,26.0,55,0.00,,,-99.99,,2013-01-31 20:11:00,
2013-01-31 14:21:00,3.0,-10.0,-100.00,NNW,330,16.0,24.0,54,0.00,,,-99.99,,2013-01-31 20:21:00,
2013-01-31 14:31:00,2.0,-10.0,-100.00,NW,310,19.0,28.0,54,0.00,,,-99.99,,2013-01-31 20:31:00,
2013-01-31 14:42:00,2.0,-10.0,-100.00,NW,310,19.0,28.0,54,0.00,,,-99.99,,2013-01-31 20:42:00,
2013-01-31 14:52:00,3.0,-10.0,-100.00,NW,305,19.0,27.0,54,0.00,,,-99.99,,2013-01-31 20:52:00,
2013-01-31 15:02:00,3.0,-10.0,-100.00,NW,305,19.0,27.0,54,0.00,,,-99.99,,2013-01-31 21:02:00,
2013-01-31 15:12:00,3.0,-10.0,-100.00,NW,315,19.0,31.0,54,0.00,,,-99.99,,2013-01-31 21:12:00,
2013-01-31 15:21:00,3.0,-10.0,-100.00,NW,310,16.0,31.0,54,0.00,,,-99.99,,2013-01-31 21:21:00,
2013-01-31 15:32:00,3.0,-10.0,-100.00,NW,320,17.0,28.0,54,0.00,,,-99.99,,2013-01-31 21:32:00,
2013-01-31 15:42:00,3.0,-10.0,-100.00,NW,320,17.0,28.0,54,0.00,,,-99.99,,2013-01-31 21:42:00,
2013-01-31 15:52:00,3.0,-10.0,-100.00,NW,305,21.0,29.0,54,0.00,,,-99.99,,2013-01-31 21:52:00,
2013-01-31 16:02:00,3.0,-10.0,-100.00,NW,305,21.0,29.0,54,0.00,,,-99.99,,2013-01-31 22:02:00,
2013-01-31 16:11:00,2.0,-11.0,-100.00,NW,310,21.0,28.0,54,0.00,,,-99.99,,2013-01-31 22:11:00,
2013-01-31 16:22:00,2.0,-10.0,-100.00,NW,305,14.0,29.0,54,0.00,,,-99.99,,2013-01-31 22:22:00,
2013-01-31 16:32:00,2.0,-11.0,-100.00,NW,310,17.0,26.0,54,0.00,,,-99.99,,2013-01-31 22:32:00,
2013-01-31 16:42:00,2.0,-11.0,-100.00,NW,310,17.0,26.0,54,0.00,,,-99.99,,2013-01-31 22:42:00,
2013-01-31 16:51:00,2.0,-11.0,-100.00,NW,315,17.0,26.0,54,0.00,,,-99.99,,2013-01-31 22:51:00,
2013-01-31 17:02:00,2.0,-11.0,-100.00,NW,315,17.0,26.0,54,0.00,,,-99.99,,2013-01-31 23:02:00,
2013-01-31 17:12:00,1.0,-11.0,-100.00,NW,305,19.0,26.0,54,0.00,,,-99.99,,2013-01-31 23:12:00,
2013-01-31 17:21:00,1.0,-11.0,-100.00,NW,310,16.0,24.0,55,0.00,,,-99.99,,2013-01-31 23:21:00,
2013-01-31 17:32:00,1.0,-12.0,-100.00,NW,305,15.0,26.0,55,0.00,,,-99.99,,2013-01-31 23:32:00,
2013-01-31 17:42:00,0.0,-12.0,-100.00,NW,305,14.0,20.0,55,0.00,,,-99.99,,2013-01-31 23:42:00,
2013-01-31 17:52:00,-1.0,-12.0,-100.00,WNW,300,16.0,24.0,56,0.00,,,-99.99,,2013-01-31 23:52:00,
2013-01-31 18:01:00,-1.0,-12.0,-100.00,WNW,300,16.0,24.0,56,0.00,,,-99.99,,2013-02-01 00:01:00,
2013-01-31 18:11:00,-1.0,-12.0,-100.00,NW,315,16.0,21.0,57,0.00,,,-99.99,,2013-02-01 00:11:00,
2013-01-31 18:21:00,-1.0,-13.0,-100.00,NW,305,12.0,22.0,57,0.00,,,-99.99,,2013-02-01 00:21:00,
2013-01-31 18:32:00,-2.0,-13.0,-100.00,NW,315,14.0,19.0,58,0.00,,,-99.99,,2013-02-01 00:32:00,
2013-01-31 18:42:00,-2.0,-13.0,-100.00,NW,315,14.0,19.0,58,0.00,,,-99.99,,2013-02-01 00:42:00,
2013-01-31 18:51:00,-2.0,-13.0,-100.00,WNW,300,14.0,19.0,58,0.00,,,-99.99,,2013-02-01 00:51:00,
2013-01-31 19:01:00,-2.0,-13.0,-100.00,WNW,300,14.0,19.0,58,0.00,,,-99.99,,2013-02-01 01:01:00,
2013-01-31 19:11:00,-2.0,-13.0,-100.00,NW,310,16.0,21.0,59,0.00,,,-99.99,,2013-02-01 01:11:00,
2013-01-31 19:21:00,-2.0,-13.0,-100.00,NW,310,13.0,21.0,59,0.00,,,-99.99,,2013-02-01 01:21:00,
2013-01-31 19:32:00,-3.0,-14.0,-100.00,NW,305,18.0,24.0,59,0.00,,,-99.99,,2013-02-01 01:32:00,
2013-01-31 19:41:00,-3.0,-14.0,-100.00,NW,305,18.0,24.0,59,0.00,,,-99.99,,2013-02-01 01:41:00,
2013-01-31 19:51:00,-4.0,-14.0,-100.00,NW,305,18.0,22.0,59,0.00,,,-99.99,,2013-02-01 01:51:00,
2013-01-31 20:01:00,-4.0,-14.0,-100.00,NW,305,18.0,22.0,59,0.00,,,-99.99,,2013-02-01 02:01:00,
2013-01-31 20:11:00,-4.0,-14.0,-100.00,NW,320,15.0,21.0,59,0.00,,,-99.99,,2013-02-01 02:11:00,
2013-01-31 20:21:00,-4.0,-15.0,-100.00,WNW,295,18.0,24.0,59,0.00,,,-99.99,,2013-02-01 02:21:00,
2013-01-31 20:31:00,-4.0,-15.0,-100.00,WNW,300,11.0,20.0,59,0.00,,,-99.99,,2013-02-01 02:31:00,
2013-01-31 20:41:00,-4.0,-15.0,-100.00,WNW,300,11.0,20.0,59,0.00,,,-99.99,,2013-02-01 02:41:00,
2013-01-31 20:52:00,-5.0,-15.0,-100.00,NW,305,13.0,20.0,61,0.00,,,-99.99,,2013-02-01 02:52:00,
2013-01-31 21:02:00,-5.0,-15.0,-100.00,NW,305,13.0,20.0,61,0.00,,,-99.99,,2013-02-01 03:02:00,
2013-01-31 21:12:00,-5.0,-15.0,-100.00,NW,305,17.0,21.0,61,0.00,,,-99.99,,2013-02-01 03:12:00,
2013-01-31 21:21:00,-5.0,-15.0,-100.00,NW,310,14.0,18.0,61,0.00,,,-99.99,,2013-02-01 03:21:00,
2013-01-31 21:32:00,-6.0,-15.0,-100.00,WNW,300,15.0,20.0,62,0.00,,,-99.99,,2013-02-01 03:32:00,
2013-01-31 21:41:00,-6.0,-15.0,-100.00,WNW,300,15.0,20.0,62,0.00,,,-99.99,,2013-02-01 03:41:00,
2013-01-31 21:51:00,-6.0,-16.0,-100.00,NW,315,14.0,22.0,62,0.00,,,-99.99,,2013-02-01 03:51:00,
2013-01-31 22:02:00,-6.0,-16.0,-100.00,NW,315,14.0,22.0,62,0.00,,,-99.99,,2013-02-01 04:02:00,
2013-01-31 22:11:00,-6.0,-16.0,-100.00,WNW,295,13.0,19.0,62,0.00,,,-99.99,,2013-02-01 04:11:00,
2013-01-31 22:21:00,-6.0,-16.0,-100.00,WNW,295,13.0,19.0,62,0.00,,,-99.99,,2013-02-01 04:21:00,
2013-01-31 22:32:00,-6.0,-16.0,-100.00,NW,310,10.0,18.0,62,0.00,,,-99.99,,2013-02-01 04:32:00,
2013-01-31 22:41:00,-6.0,-16.0,-100.00,NW,310,10.0,18.0,62,0.00,,,-99.99,,2013-02-01 04:41:00,
2013-01-31 22:51:00,-7.0,-16.0,-100.00,NW,320,13.0,18.0,61,0.00,,,-99.99,,2013-02-01 04:51:00,
2013-01-31 23:03:00,-7.0,-16.0,-100.00,NW,320,13.0,18.0,61,0.00,,,-99.99,,2013-02-01 05:03:00,
2013-01-31 23:11:00,-7.0,-16.0,-100.00,NW,315,11.0,18.0,61,0.00,,,-99.99,,2013-02-01 05:11:00,
2013-01-31 23:22:00,-7.0,-16.0,-100.00,WNW,300,14.0,19.0,61,0.00,,,-99.99,,2013-02-01 05:22:00,
2013-01-31 23:32:00,-7.0,-17.0,-100.00,NW,320,10.0,18.0,61,0.00,,,-99.99,,2013-02-01 05:32:00,
2013-01-31 23:41:00,-7.0,-17.0,-100.00,NW,320,10.0,18.0,61,0.00,,,-99.99,,2013-02-01 05:41:00,
2013-01-31 23:52:00,-7.0,-17.0,-100.00,WNW,290,9.0,16.0,61,0.00,,,-99.99,,2013-02-01 05:52:00,